Home   Weather   Narragansett   Past weeks

Flag for USA Past Weather in Narragansett, Rhode Island, USA — Yesterday and Last 2 Weeks

Now
34 °F

Clear.


Feels Like: 25 °F
Forecast: 29 / 40 °F
Wind: 12 mph from Northwest

Location: Newport State Airport

Current Time: Dec 4, 2016 at 7:29:25 am

Latest Report: Dec 4, 2016 at 6:53 am


Visibility: 10 mi

Pressure: 30.14 "Hg

Humidity: 59%

Dew Point: 21 °F

Location of NarragansettLocation

Past Weather in Narragansett — Graph

°F

Narragansett Temperature Yesterday

Maximum temperature yesterday: 47 °F (at 12:53 pm)
Minimum temperature yesterday: 36 °F (at 10:53 pm)
Average temperature yesterday: 41 °F

High & Low Weather Summary for the Past Weeks

 TemperatureHumidityPressure
High60 °F (Dec 1, 4:53 am)100% (Nov 19, 6:53 pm)30.34 "Hg (Nov 19, 6:53 pm)
Low32 °F (Nov 21, 6:53 am)42% (Nov 28, 2:53 pm)29.32 "Hg (Nov 20, 5:53 am)
Average43 °F76%29.91 "Hg
* Reported Nov 19 5:53 am — Dec 4 5:53 am, Narragansett, Weather by CustomWeather, © 2016

Note: Actual official high and low records may vary slightly from our data, if they occured in-between our weather recording intervals... More about our weather records

Advertising

Narragansett Weather History for the Previous 24 Hours

Scroll right to see more
 ConditionsComfort  
Time TempWeatherWind HumidityBarometerVisibility
5:53 am
Sun, Dec 4
34 °FClear.14 mph61%30.14 "Hg10 mi
4:53 am34 °FPassing clouds.14 mph61%30.13 "Hg10 mi
3:53 am34 °FPassing clouds.13 mph67%30.14 "Hg10 mi
2:53 am34 °FClear.12 mph67%30.13 "Hg10 mi
1:53 am35 °FClear.13 mph67%30.11 "Hg10 mi
12:53 am35 °FClear.12 mph67%30.09 "Hg10 mi
11:53 pm
Sat, Dec 3
36 °FClear.9 mph64%30.08 "Hg10 mi
10:53 pm36 °FClear.9 mph62%30.05 "Hg10 mi
9:53 pm38 °FClear.16 mph60%30.03 "Hg10 mi
8:53 pm39 °FClear.13 mph57%30.03 "Hg10 mi
7:53 pm40 °FOvercast.14 mph58%30.03 "Hg10 mi
6:53 pm41 °FPassing clouds.15 mph55%30.01 "Hg10 mi
5:53 pm41 °FPassing clouds.10 mph58%29.99 "Hg10 mi
4:53 pm41 °FClear.14 mph58%29.96 "Hg10 mi
3:53 pm42 °FSunny.15 mph53%29.93 "Hg10 mi
2:53 pm43 °FPartly sunny.21 mph53%29.91 "Hg10 mi
1:53 pm46 °FPartly sunny.18 mph51%29.88 "Hg10 mi
12:53 pm47 °FSunny.20 mph50%29.86 "Hg10 mi
11:53 am46 °FPassing clouds.18 mph51%29.88 "Hg10 mi
10:53 am45 °FPassing clouds.18 mph51%29.88 "Hg10 mi
9:53 am43 °FSunny.16 mph56%29.88 "Hg10 mi
8:53 am41 °FSunny.20 mph60%29.87 "Hg10 mi
7:53 am40 °FSunny.15 mph63%29.85 "Hg10 mi
Weather by CustomWeather, © 2016

See weather overviewHow to use our weather pages